Flag for Germany Weather past 2 weeks in Bocholt, North Rhine-Westphalia, Germany

Now
54 °F

Passing clouds.


Feels Like: 53 °F
Forecast: 48 / 61 °F
Wind: 3 mph from Southwest

Location: Niederrhein

Current Time: Apr 25, 2015 at 6:27:33 AM

Latest Report: Apr 25, 2015 at 5:20 AM


Visibility: 4 mi

Pressure: 29.77 "Hg

Humidity: 82%

Dew point: 48 °F

Location of BocholtLocation

Historic Weather in Bocholt — Graph

°F

Bocholt temperature yesterday

Maximum temperature yesterday: 72 °F (at 4:20 PM)
Minimum temperature yesterday: 37 °F (at 5:20 AM)
Average temperature yesterday: 60 °F

Past Weeks' High & Low Weather Summary

 TemperatureHumidityPressure
High75 °F (Apr 15, 3:20 PM)100% (Apr 10, 5:50 AM)30.48 "Hg (Apr 10, 5:50 AM)
Low34 °F (Apr 18, 5:50 AM)16% (Apr 10, 5:20 PM)29.77 "Hg (Apr 25, 4:50 AM)
Average54 °F61%30.20 "Hg
* Reported Apr 10 4:50 AM — Apr 25 4:50 AM, Bocholt, Weather by CustomWeather, © 2015

Note: Actual official high and low records may vary slightly from our data, if they occured in-between our weather recording intervals... More about our weather records

Advertising

Bocholt weather history for previous 24 hours

 ConditionsComfort  
Time TempWeatherWind HumidityBarometerVisibility
4:50 AM
Sat, Apr 25
54 °FPassing clouds.2 mph82%29.77 "Hg4 mi
11:50 PM
Fri, Apr 24
59 °FPassing clouds.7 mph59%29.80 "HgN/A
11:20 PM61 °FPassing clouds.5 mph55%29.80 "HgN/A
10:50 PM63 °FClear.3 mph52%29.80 "Hg10 mi
10:20 PM61 °FSunny.1 mph59%29.80 "Hg10 mi
9:50 PM63 °FSunny.2 mph52%29.80 "Hg10 mi
9:20 PM64 °FSunny.3 mph49%29.80 "Hg10 mi
8:50 PM66 °FSunny.No wind49%29.80 "Hg10 mi
8:20 PM68 °FSunny.No wind43%29.80 "Hg10 mi
7:50 PM68 °FSunny.2 mph43%29.80 "Hg10 mi
7:20 PM70 °FPassing clouds.5 mph38%29.80 "HgN/A
6:50 PM70 °FSunny.8 mph38%29.80 "Hg10 mi
6:20 PM72 °FSunny.9 mph36%29.83 "Hg10 mi
5:50 PM72 °FPassing clouds.12 mph36%29.83 "HgN/A
5:20 PM72 °FPassing clouds.9 mph33%29.83 "HgN/A
4:50 PM72 °FSunny.12 mph31%29.83 "Hg10 mi
4:20 PM72 °FPassing clouds.8 mph29%29.83 "HgN/A
3:50 PM70 °FPassing clouds.10 mph29%29.86 "HgN/A
3:20 PM70 °FSunny.13 mph31%29.86 "Hg10 mi
2:50 PM68 °FPassing clouds.13 mph33%29.89 "HgN/A
1:50 PM68 °FPassing clouds.9 mph38%29.89 "HgN/A
1:20 PM66 °FPassing clouds.9 mph37%29.89 "HgN/A
12:50 PM64 °FPassing clouds.9 mph40%29.92 "HgN/A
12:20 PM66 °FPassing clouds.8 mph40%29.92 "HgN/A
11:50 AM64 °FClear.7 mph43%29.92 "Hg5 mi
11:20 AM63 °FClear.8 mph49%29.92 "Hg5 mi
10:50 AM61 °FClear.7 mph52%29.92 "Hg4 mi
10:20 AM59 °FClear.6 mph59%29.95 "Hg4 mi
9:50 AM55 °FClear.7 mph63%29.95 "Hg4 mi
9:20 AM52 °FClear.6 mph72%29.95 "Hg4 mi
8:50 AM48 °FClear.5 mph82%29.95 "Hg4 mi
8:20 AM46 °FClear.2 mph87%29.95 "Hg4 mi
7:50 AM41 °FFog.2 mph93%29.95 "Hg3 mi
7:20 AM39 °FFog.2 mph93%29.95 "Hg2 mi
6:50 AM39 °FFog.2 mph87%29.95 "Hg2 mi
6:20 AM37 °FFog.No wind100%29.95 "Hg3 mi
Weather by CustomWeather, © 2015

See weather overviewHow to use our weather pages